Погода в Торбееве

Россия / Калужская область     54°43′51″N   36°11′10″E
темп.,
°C
ветер,
м/с
пор.,
м/с
влажн.,
%
обл.,
%
осадки,
мм/ч
давл.,
гПа
погр.,
м
3 августа, вт
вт300:00+17ююз61393100 3.9 1006479
03:00+16юз4109711 3.9 1006302
06:00+15зюз379720 0.0 1008306
09:00+16з468995 0.0 1009411
12:00+22з455222 0.0 10101521
15:00+22з5653100 0.0 10101391
18:00+22зюз475094 0.0 10101768
21:00+18з2459100 0.0 101296
4 августа, ср
ср400:00+17юз366837 0.0 1013207
03:00+13зюз238553 0.0 101437
06:00+15зюз367449 0.0 1015223
09:00+19з356353 0.0 1016561
12:00+19зюз356181 0.0 1016708
15:00+21зюз5553100 0.1 10161136
18:00+18ю247124 0.4 1016141
21:00+15ююз117899 0.4 101711
5 августа, чт
чт500:00+13с00854 0.3 101711
03:00+13в1186100 0.3 101810
06:00+13в118596 0.0 101811
09:00+17вюв2479100 0.0 1017191
12:00+19зюз2361100 0.0 1018578
15:00+17вюв1179100 0.2 101718
18:00+15в4795100 2.4 1016271
21:00+15всв41094100 3.7 1014258
6 августа, пт
пт600:00+14всв51095100 1.5 1014292
03:00+14в51194100 1.9 1012274
06:00+14юв3888100 0.1 1011170
09:00+15вюв4892100 2.7 1010188
12:00+20ю41074100 0.0 1009824
15:00+18юв378395 0.6 1009154
18:00+25ю2663100 0.0 1008701
21:00+20ссз2281100 0.1 100835
7 августа, сб
сб700:00+18ссв488999 0.0 1008178
03:00+17всв369373 0.0 1008169
06:00+17ю2686100 0.0 1008131
09:00+21з138188 0.1 1008146
12:00+25ю1360100 0.0 1009870
15:00+20ссв2393100 1.9 100972
18:00+21ю2485100 4.2 1009252
21:00+18ююз2397100 6.7 101073